| time (UTC) | temp C | wind direction | speed KPH | gust KPH | rain 1hr cm | rain 24hr cm | rain mn cm | humidity % | barometer mb |
| 20260506151025 | 13 | 289 | 4.8 | 12.9 | 0.00 | 0.00 | 0.00 | 86 | 1017.5 |
| 20260506150525 | 13 | 339 | 3.2 | 9.7 | 0.00 | 0.00 | 0.00 | 87 | 1017.5 |
| 20260506150030 | 13 | 330 | 4.8 | 12.9 | 0.00 | 0.00 | 0.00 | 87 | 1017.5 |
| 20260506145523 | 13 | 241 | 6.4 | 12.9 | 0.00 | 0.00 | 0.00 | 88 | 1017.5 |
| 20260506145023 | 13 | 308 | 4.8 | 12.9 | 0.00 | 0.00 | 0.00 | 88 | 1017.5 |
| 20260506144520 | 13 | 285 | 4.8 | 9.7 | 0.00 | 0.00 | 0.00 | 88 | 1017.5 |
| 20260506144034 | 12 | 243 | 3.2 | 11.3 | 0.00 | 0.00 | 0.00 | 88 | 1017.5 |
| 20260506143519 | 12 | 283 | 3.2 | 11.3 | 0.00 | 0.00 | 0.00 | 89 | 1017.4 |
| 20260506143035 | 12 | 308 | 3.2 | 9.7 | 0.00 | 0.00 | 0.00 | 89 | 1017.3 |
| 20260506142514 | 12 | 322 | 4.8 | 9.7 | 0.00 | 0.00 | 0.00 | 89 | 1017.4 |
| 20260506142013 | 12 | 333 | 3.2 | 9.7 | 0.00 | 0.00 | 0.00 | 89 | 1017.3 |
| 20260506141512 | 12 | 295 | 4.8 | 9.7 | 0.00 | 0.00 | 0.00 | 89 | 1017.3 |
| 20260506141010 | 12 | 303 | 1.6 | 6.4 | 0.00 | 0.00 | 0.00 | 89 | 1017.2 |
| 20260506140509 | 12 | 311 | 3.2 | 6.4 | 0.00 | 0.00 | 0.00 | 89 | 1017.1 |
| 20260506140010 | 11 | 280 | 1.6 | 6.4 | 0.00 | 0.00 | 0.00 | 89 | 1017.0 |
| 20260506135507 | 11 | 316 | 0.0 | 6.4 | 0.00 | 0.00 | 0.00 | 89 | 1016.9 |
| 20260506135007 | 11 | 321 | 3.2 | 6.4 | 0.00 | 0.00 | 0.00 | 89 | 1016.9 |
| 20260506134506 | 11 | 303 | 3.2 | 9.7 | 0.00 | 0.00 | 0.00 | 89 | 1016.8 |
| 20260506134005 | 11 | 274 | 1.6 | 8.0 | 0.00 | 0.00 | 0.00 | 89 | 1016.8 |
| 20260506133503 | 11 | 321 | 1.6 | 9.7 | 0.00 | 0.00 | 0.00 | 89 | 1016.7 |
| 20260506133004 | 11 | 309 | 0.0 | 3.2 | 0.00 | 0.00 | 0.00 | 89 | 1016.7 |
| 20260506132503 | 11 | 310 | 0.0 | 4.8 | 0.00 | 0.00 | 0.00 | 89 | 1016.6 |
| 20260506132100 | 11 | 297 | 1.6 | 4.8 | 0.00 | 0.00 | 0.00 | 89 | 1016.6 |
| 20260506131601 | 11 | 317 | 1.6 | 4.8 | 0.00 | 0.00 | 0.00 | 89 | 1016.6 |
| 20260506131059 | 11 | 289 | 1.6 | 4.8 | 0.00 | 0.00 | 0.00 | 89 | 1016.5 |
| 20260506130558 | 11 | 323 | 1.6 | 4.8 | 0.00 | 0.00 | 0.00 | 89 | 1016.4 |
| 20260506130131 | 11 | 289 | 1.6 | 4.8 | 0.00 | 0.00 | 0.00 | 89 | 1016.4 |
| 20260506125602 | 11 | 313 | 1.6 | 6.4 | 0.00 | 0.00 | 0.00 | 89 | 1016.4 |
| 20260506125056 | 11 | 297 | 1.6 | 6.4 | 0.00 | 0.00 | 0.00 | 89 | 1016.4 |
| 20260506124557 | 11 | 320 | 1.6 | 6.4 | 0.00 | 0.00 | 0.00 | 88 | 1016.3 |
| 20260506124055 | 11 | 274 | 1.6 | 6.4 | 0.00 | 0.00 | 0.00 | 88 | 1016.3 |
| 20260506123558 | 11 | 258 | 3.2 | 6.4 | 0.00 | 0.00 | 0.00 | 88 | 1016.3 |
| 20260506123054 | 11 | 307 | 3.2 | 6.4 | 0.00 | 0.00 | 0.00 | 88 | 1016.2 |
| 20260506122553 | 12 | 284 | 3.2 | 6.4 | 0.00 | 0.00 | 0.00 | 88 | 1016.2 |
| 20260506122053 | 12 | 256 | 3.2 | 6.4 | 0.00 | 0.00 | 0.00 | 88 | 1016.2 |
| 20260506121553 | 12 | 291 | 1.6 | 6.4 | 0.00 | 0.00 | 0.00 | 88 | 1016.1 |
| 20260506121053 | 12 | 337 | 3.2 | 8.0 | 0.00 | 0.00 | 0.00 | 88 | 1016.0 |
| 20260506120552 | 12 | 327 | 4.8 | 8.0 | 0.00 | 0.00 | 0.00 | 88 | 1016.0 |
| 20260506120052 | 12 | 327 | 3.2 | 8.0 | 0.00 | 0.00 | 0.00 | 89 | 1015.9 |
| 20260506115551 | 12 | 329 | 3.2 | 8.0 | 0.00 | 0.00 | 0.00 | 89 | 1015.9 |
| 20260506115051 | 12 | 332 | 3.2 | 6.4 | 0.00 | 0.00 | 0.00 | 89 | 1015.8 |
| 20260506114551 | 12 | 297 | 1.6 | 6.4 | 0.00 | 0.00 | 0.00 | 88 | 1015.8 |
| 20260506114052 | 12 | 316 | 3.2 | 6.4 | 0.00 | 0.00 | 0.00 | 89 | 1015.8 |
| 20260506113551 | 11 | 349 | 3.2 | 6.4 | 0.00 | 0.00 | 0.00 | 88 | 1015.9 |
| 20260506113056 | 11 | 328 | 1.6 | 6.4 | 0.00 | 0.00 | 0.00 | 88 | 1015.9 |
| 20260506112552 | 11 | 339 | 1.6 | 6.4 | 0.00 | 0.00 | 0.00 | 88 | 1016.0 |
| 20260506112054 | 11 | 293 | 1.6 | 4.8 | 0.00 | 0.00 | 0.00 | 88 | 1015.9 |
| 20260506111553 | 11 | 334 | 1.6 | 6.4 | 0.00 | 0.00 | 0.00 | 88 | 1016.0 |
| 20260506111050 | 12 | 305 | 1.6 | 6.4 | 0.00 | 0.00 | 0.00 | 87 | 1015.9 |
| 20260506110549 | 12 | 272 | 3.2 | 4.8 | 0.00 | 0.00 | 0.00 | 87 | 1015.9 |
| 20260506110058 | 12 | 303 | 1.6 | 4.8 | 0.00 | 0.00 | 0.00 | 87 | 1016.0 |
| 20260506105549 | 12 | 307 | 1.6 | 4.8 | 0.00 | 0.00 | 0.00 | 87 | 1015.9 |
| 20260506105049 | 12 | 354 | 0.0 | 4.8 | 0.00 | 0.00 | 0.00 | 87 | 1015.9 |
| 20260506104551 | 12 | 17 | 0.0 | 6.4 | 0.00 | 0.00 | 0.00 | 87 | 1015.8 |
| 20260506104048 | 12 | 345 | 0.0 | 8.0 | 0.00 | 0.00 | 0.00 | 87 | 1015.8 |
| 20260506103548 | 12 | 341 | 3.2 | 8.0 | 0.00 | 0.00 | 0.00 | 87 | 1015.7 |
| 20260506103048 | 12 | 332 | 3.2 | 8.0 | 0.00 | 0.00 | 0.00 | 87 | 1015.7 |
| 20260506102547 | 12 | 330 | 4.8 | 9.7 | 0.00 | 0.00 | 0.00 | 87 | 1015.7 |
| 20260506102045 | 12 | 318 | 3.2 | 9.7 | 0.00 | 0.00 | 0.00 | 87 | 1015.7 |
| 20260506101554 | 12 | 336 | 3.2 | 6.4 | 0.00 | 0.00 | 0.00 | 87 | 1015.7 |
| 20260506101045 | 12 | 342 | 3.2 | 6.4 | 0.00 | 0.00 | 0.00 | 87 | 1015.7 |
| 20260506100548 | 12 | 346 | 1.6 | 6.4 | 0.00 | 0.00 | 0.00 | 86 | 1015.7 |
| 20260506100046 | 12 | 321 | 1.6 | 6.4 | 0.00 | 0.00 | 0.00 | 86 | 1015.7 |
| 20260506095547 | 12 | 332 | 1.6 | 6.4 | 0.00 | 0.00 | 0.00 | 86 | 1015.6 |
| 20260506095044 | 12 | 320 | 3.2 | 6.4 | 0.00 | 0.00 | 0.00 | 86 | 1015.6 |
| 20260506094553 | 12 | 326 | 1.6 | 4.8 | 0.00 | 0.00 | 0.00 | 86 | 1015.6 |
| 20260506094043 | 12 | 343 | 0.0 | 6.4 | 0.00 | 0.00 | 0.00 | 86 | 1015.5 |
| 20260506093547 | 12 | 343 | 1.6 | 8.0 | 0.00 | 0.00 | 0.00 | 85 | 1015.5 |
| 20260506093047 | 12 | 345 | 4.8 | 8.0 | 0.00 | 0.00 | 0.00 | 85 | 1015.4 |
| 20260506092542 | 12 | 332 | 3.2 | 8.0 | 0.00 | 0.00 | 0.00 | 85 | 1015.3 |
| 20260506092042 | 12 | 349 | 4.8 | 8.0 | 0.00 | 0.00 | 0.00 | 85 | 1015.3 |
| 20260506091542 | 12 | 338 | 3.2 | 8.0 | 0.00 | 0.00 | 0.00 | 85 | 1015.2 |
| 20260506091045 | 12 | 342 | 1.6 | 9.7 | 0.00 | 0.00 | 0.00 | 85 | 1015.2 |
| 20260506090544 | 12 | 338 | 4.8 | 14.5 | 0.00 | 0.00 | 0.00 | 85 | 1015.1 |
| 20260506090043 | 12 | 343 | 3.2 | 14.5 | 0.00 | 0.00 | 0.00 | 85 | 1015.0 |
| 20260506085539 | 12 | 322 | 6.4 | 12.9 | 0.00 | 0.00 | 0.00 | 84 | 1014.9 |
| 20260506085038 | 13 | 313 | 4.8 | 12.9 | 0.00 | 0.00 | 0.00 | 84 | 1015.0 |
| 20260506084538 | 13 | 320 | 4.8 | 11.3 | 0.00 | 0.00 | 0.00 | 84 | 1015.2 |
| 20260506084037 | 13 | 295 | 4.8 | 12.9 | 0.00 | 0.00 | 0.00 | 85 | 1015.3 |
| 20260506083541 | 13 | 339 | 4.8 | 12.9 | 0.00 | 0.00 | 0.00 | 85 | 1015.2 |
| 20260506083037 | 13 | 320 | 4.8 | 12.9 | 0.00 | 0.00 | 0.00 | 85 | 1015.4 |
| 20260506082539 | 13 | 328 | 1.6 | 8.0 | 0.00 | 0.00 | 0.00 | 85 | 1015.6 |
| 20260506082035 | 13 | 333 | 1.6 | 6.4 | 0.00 | 0.00 | 0.00 | 85 | 1015.8 |
| 20260506081534 | 13 | 38 | 3.2 | 8.0 | 0.00 | 0.00 | 0.00 | 85 | 1016.0 |
| 20260506081034 | 13 | 341 | 3.2 | 12.9 | 0.00 | 0.00 | 0.00 | 85 | 1016.0 |
| 20260506080533 | 13 | 68 | 3.2 | 8.0 | 0.00 | 0.00 | 0.00 | 84 | 1016.0 |
| 20260506073528 | 13 | 4 | 1.6 | 8.0 | 0.00 | 0.00 | 0.00 | 83 | 1015.5 |
| 20260506073027 | 13 | 332 | 3.2 | 6.4 | 0.00 | 0.00 | 0.00 | 83 | 1015.4 |
| 20260506072527 | 13 | 345 | 1.6 | 8.0 | 0.00 | 0.00 | 0.00 | 83 | 1015.4 |
| 20260506072025 | 13 | 354 | 1.6 | 4.8 | 0.00 | 0.00 | 0.00 | 83 | 1015.3 |
| 20260506071526 | 13 | 354 | 1.6 | 8.0 | 0.00 | 0.00 | 0.00 | 83 | 1015.3 |
| 20260506071025 | 13 | 343 | 1.6 | 8.0 | 0.00 | 0.00 | 0.00 | 83 | 1015.2 |
| 20260506070523 | 13 | 332 | 3.2 | 6.4 | 0.00 | 0.00 | 0.00 | 83 | 1015.1 |
| 20260506062019 | 14 | 334 | 0.0 | 4.8 | 0.00 | 0.00 | 0.00 | 81 | 1014.5 |
| 20260506061519 | 14 | 339 | 1.6 | 4.8 | 0.00 | 0.00 | 0.00 | 81 | 1014.5 |
| 20260506061019 | 14 | 330 | 1.6 | 4.8 | 0.00 | 0.00 | 0.00 | 80 | 1014.5 |
| 20260506060521 | 15 | 327 | 1.6 | 4.8 | 0.00 | 0.00 | 0.00 | 80 | 1014.5 |
| 20260506051017 | 15 | 324 | 3.2 | 6.4 | 0.00 | 0.00 | 0.00 | 78 | 1014.2 |
| 20260506050521 | 15 | 277 | 3.2 | 6.4 | 0.00 | 0.00 | 0.00 | 77 | 1014.2 |
| 20260506045013 | 15 | 305 | 3.2 | 6.4 | 0.00 | 0.00 | 0.00 | 76 | 1014.1 |
| 20260506044513 | 16 | 321 | 3.2 | 8.0 | 0.00 | 0.00 | 0.00 | 75 | 1014.0 |
| 20260506044019 | 16 | 316 | 3.2 | 8.0 | 0.00 | 0.00 | 0.00 | 75 | 1013.9 |
| 20260506043512 | 16 | 312 | 3.2 | 8.0 | 0.00 | 0.00 | 0.00 | 74 | 1013.8 |
| 20260506043011 | 16 | 324 | 3.2 | 6.4 | 0.00 | 0.00 | 0.00 | 73 | 1013.8 |
| 20260506042511 | 16 | 303 | 1.6 | 6.4 | 0.00 | 0.00 | 0.00 | 73 | 1013.7 |
| 20260506042017 | 16 | 305 | 3.2 | 6.4 | 0.00 | 0.00 | 0.00 | 72 | 1013.6 |
| 20260506041522 | 16 | 335 | 1.6 | 6.4 | 0.00 | 0.00 | 0.00 | 72 | 1013.5 |
| 20260506041012 | 16 | 312 | 3.2 | 6.4 | 0.00 | 0.00 | 0.00 | 72 | 1013.4 |
| 20260506040515 | 16 | 304 | 1.6 | 6.4 | 0.00 | 0.00 | 0.00 | 71 | 1013.5 |
| 20260506040009 | 16 | 298 | 1.6 | 6.4 | 0.00 | 0.00 | 0.00 | 71 | 1013.4 |
| 20260506035507 | 16 | 321 | 1.6 | 8.0 | 0.00 | 0.00 | 0.00 | 70 | 1013.3 |
| 20260506035007 | 16 | 319 | 3.2 | 8.0 | 0.00 | 0.00 | 0.00 | 70 | 1013.1 |
| 20260506034508 | 16 | 328 | 1.6 | 8.0 | 0.00 | 0.00 | 0.00 | 70 | 1013.1 |
| 20260506034007 | 16 | 280 | 1.6 | 9.7 | 0.00 | 0.00 | 0.00 | 69 | 1013.1 |
| 20260506033506 | 16 | 316 | 3.2 | 4.8 | 0.00 | 0.00 | 0.00 | 69 | 1013.0 |
| 20260506033006 | 17 | 290 | 1.6 | 8.0 | 0.00 | 0.00 | 0.00 | 69 | 1012.9 |
| 20260506032508 | 17 | 327 | 3.2 | 8.0 | 0.00 | 0.00 | 0.00 | 69 | 1012.9 |
| 20260506032007 | 17 | 314 | 1.6 | 8.0 | 0.00 | 0.00 | 0.00 | 68 | 1012.8 |
| 20260506031512 | 17 | 331 | 1.6 | 9.7 | 0.00 | 0.00 | 0.00 | 68 | 1012.7 |
| 20260506031006 | 17 | 306 | 3.2 | 9.7 | 0.00 | 0.00 | 0.00 | 67 | 1012.6 |
| 20260506030508 | 17 | 326 | 3.2 | 8.0 | 0.00 | 0.00 | 0.00 | 67 | 1012.6 |
| 20260506030008 | 17 | 270 | 1.6 | 9.7 | 0.00 | 0.00 | 0.00 | 66 | 1012.6 |
| 20260506025505 | 17 | 316 | 1.6 | 9.7 | 0.00 | 0.00 | 0.00 | 66 | 1012.5 |
| 20260506025009 | 17 | 324 | 4.8 | 9.7 | 0.00 | 0.00 | 0.00 | 65 | 1012.4 |
| 20260506024506 | 17 | 336 | 3.2 | 9.7 | 0.00 | 0.00 | 0.00 | 65 | 1012.4 |
| 20260506024005 | 17 | 299 | 4.8 | 12.9 | 0.00 | 0.00 | 0.00 | 65 | 1012.4 |
| 20260506023506 | 18 | 329 | 6.4 | 14.5 | 0.00 | 0.00 | 0.00 | 64 | 1012.3 |
| 20260506023004 | 18 | 324 | 3.2 | 14.5 | 0.00 | 0.00 | 0.00 | 64 | 1012.2 |
| 20260506022504 | 18 | 354 | 6.4 | 16.1 | 0.00 | 0.00 | 0.00 | 64 | 1012.3 |
| 20260506022005 | 18 | 334 | 3.2 | 14.5 | 0.00 | 0.00 | 0.00 | 64 | 1012.2 |
| 20260506021506 | 18 | 341 | 4.8 | 16.1 | 0.00 | 0.00 | 0.00 | 63 | 1012.2 |
| 20260506021004 | 18 | 320 | 4.8 | 9.7 | 0.00 | 0.00 | 0.00 | 63 | 1012.2 |
| 20260506020507 | 18 | 339 | 3.2 | 14.5 | 0.00 | 0.00 | 0.00 | 63 | 1012.1 |
| 20260506020004 | 18 | 324 | 4.8 | 16.1 | 0.00 | 0.00 | 0.00 | 62 | 1012.1 |
| 20260506015504 | 18 | 21 | 3.2 | 16.1 | 0.00 | 0.00 | 0.00 | 63 | 1012.1 |
| 20260506015004 | 18 | 288 | 3.2 | 9.7 | 0.00 | 0.00 | 0.00 | 62 | 1012.1 |
| 20260506014507 | 18 | 316 | 4.8 | 12.9 | 0.00 | 0.00 | 0.00 | 62 | 1012.1 |
| 20260506014003 | 18 | 296 | 4.8 | 16.1 | 0.00 | 0.00 | 0.00 | 62 | 1012.0 |
| 20260506013503 | 18 | 307 | 6.4 | 16.1 | 0.00 | 0.00 | 0.00 | 61 | 1012.1 |
| 20260506013002 | 19 | 286 | 8.0 | 16.1 | 0.00 | 0.00 | 0.00 | 61 | 1012.1 |
| 20260506012504 | 18 | 313 | 4.8 | 12.9 | 0.00 | 0.00 | 0.00 | 61 | 1012.1 |
| 20260506012001 | 18 | 359 | 6.4 | 14.5 | 0.00 | 0.00 | 0.00 | 60 | 1012.1 |
| 20260506011502 | 18 | 330 | 3.2 | 14.5 | 0.00 | 0.00 | 0.00 | 60 | 1012.1 |
| 20260506011001 | 18 | 336 | 6.4 | 12.9 | 0.00 | 0.00 | 0.00 | 60 | 1012.2 |
| 20260506010501 | 19 | 21 | 6.4 | 19.3 | 0.00 | 0.00 | 0.00 | 59 | 1012.2 |
| 20260506010003 | 19 | 285 | 8.0 | 19.3 | 0.00 | 0.00 | 0.00 | 58 | 1012.2 |
| 20260506005602 | 19 | 307 | 3.2 | 17.7 | 0.00 | 0.00 | 0.00 | 58 | 1012.1 |
| 20260506005002 | 20 | 287 | 6.4 | 19.3 | 0.00 | 0.00 | 0.00 | 57 | 1012.1 |
| 20260506004601 | 20 | 263 | 12.9 | 19.3 | 0.00 | 0.00 | 0.00 | 56 | 1012.1 |
| 20260506004102 | 20 | 359 | 4.8 | 17.7 | 0.00 | 0.00 | 0.00 | 58 | 1012.2 |
| 20260506003559 | 20 | 331 | 6.4 | 14.5 | 0.00 | 0.00 | 0.00 | 58 | 1012.2 |
| 20260506003059 | 19 | 265 | 8.0 | 16.1 | 0.00 | 0.00 | 0.00 | 59 | 1012.2 |
| 20260506002559 | 19 | 325 | 4.8 | 16.1 | 0.00 | 0.00 | 0.00 | 59 | 1012.1 |
| 20260506002100 | 19 | 320 | 8.0 | 17.7 | 0.00 | 0.00 | 0.00 | 58 | 1012.1 |
| 20260506001618 | 19 | 262 | 9.7 | 19.3 | 0.00 | 0.00 | 0.00 | 58 | 1012.2 |
| 20260506001059 | 19 | 291 | 11.3 | 19.3 | 0.00 | 0.00 | 0.00 | 58 | 1012.2 |
| 20260506000558 | 19 | 233 | 8.0 | 17.7 | 0.00 | 0.00 | 0.00 | 59 | 1012.1 |
| 20260506000101 | 18 | 258 | 6.4 | 16.1 | 0.00 | 0.00 | 0.00 | 59 | 1012.0 |
| 20260505235558 | 18 | 335 | 8.0 | 16.1 | 0.00 | 0.00 | 0.00 | 60 | 1012.0 |
| 20260505235102 | 19 | 332 | 8.0 | 19.3 | 0.00 | 0.00 | 0.00 | 58 | 1012.0 |
| 20260505234600 | 20 | 252 | 8.0 | 19.3 | 0.00 | 0.00 | 0.00 | 58 | 1012.0 |
| 20260505234101 | 19 | 285 | 11.3 | 19.3 | 0.00 | 0.00 | 0.00 | 58 | 1012.0 |
| 20260505233557 | 19 | 330 | 9.7 | 19.3 | 0.00 | 0.00 | 0.00 | 59 | 1012.0 |
| 20260505233059 | 19 | 277 | 6.4 | 16.1 | 0.00 | 0.00 | 0.00 | 59 | 1012.0 |
| 20260505232557 | 19 | 294 | 8.0 | 16.1 | 0.00 | 0.00 | 0.00 | 60 | 1012.1 |
| 20260505232058 | 19 | 258 | 6.4 | 16.1 | 0.00 | 0.00 | 0.00 | 59 | 1012.0 |
| 20260505231558 | 19 | 308 | 8.0 | 20.9 | 0.00 | 0.00 | 0.00 | 59 | 1012.1 |
| 20260505231057 | 18 | 320 | 8.0 | 20.9 | 0.00 | 0.00 | 0.00 | 60 | 1012.1 |
| 20260505230556 | 18 | 307 | 6.4 | 19.3 | 0.00 | 0.00 | 0.00 | 61 | 1012.1 |
| 20260505230116 | 19 | 312 | 4.8 | 19.3 | 0.00 | 0.00 | 0.00 | 59 | 1012.2 |
| 20260505225556 | 20 | 289 | 8.0 | 16.1 | 0.00 | 0.00 | 0.00 | 58 | 1012.1 |
| 20260505225057 | 20 | 314 | 6.4 | 20.9 | 0.00 | 0.00 | 0.00 | 59 | 1012.2 |
| 20260505224555 | 19 | 260 | 8.0 | 20.9 | 0.00 | 0.00 | 0.00 | 58 | 1012.2 |
| 20260505224054 | 19 | 231 | 6.4 | 19.3 | 0.00 | 0.00 | 0.00 | 60 | 1012.3 |
| 20260505223554 | 19 | 282 | 6.4 | 24.1 | 0.00 | 0.00 | 0.00 | 61 | 1012.2 |
| 20260505223058 | 19 | 245 | 12.9 | 24.1 | 0.00 | 0.00 | 0.00 | 60 | 1012.3 |
| 20260505222554 | 18 | 284 | 6.4 | 14.5 | 0.00 | 0.00 | 0.00 | 60 | 1012.2 |
| 20260505222054 | 19 | 282 | 6.4 | 20.9 | 0.00 | 0.00 | 0.00 | 60 | 1012.2 |
| 20260505221555 | 19 | 275 | 8.0 | 20.9 | 0.00 | 0.00 | 0.00 | 61 | 1012.3 |
| 20260505221053 | 18 | 297 | 12.9 | 20.9 | 0.00 | 0.00 | 0.00 | 59 | 1012.4 |
| 20260505220553 | 19 | 277 | 4.8 | 24.1 | 0.00 | 0.00 | 0.00 | 60 | 1012.3 |
| 20260505220052 | 19 | 256 | 8.0 | 20.9 | 0.00 | 0.00 | 0.00 | 60 | 1012.3 |
| 20260505215551 | 18 | 316 | 12.9 | 19.3 | 0.00 | 0.00 | 0.00 | 60 | 1012.3 |
| 20260505215051 | 18 | 266 | 9.7 | 19.3 | 0.00 | 0.00 | 0.00 | 59 | 1012.3 |
| 20260505214601 | 18 | 301 | 8.0 | 19.3 | 0.00 | 0.00 | 0.00 | 60 | 1012.3 |
| 20260505214050 | 18 | 272 | 8.0 | 22.5 | 0.00 | 0.00 | 0.00 | 60 | 1012.4 |
| 20260505213549 | 18 | 251 | 8.0 | 22.5 | 0.00 | 0.00 | 0.00 | 61 | 1012.5 |
| 20260505213056 | 18 | 318 | 6.4 | 17.7 | 0.00 | 0.00 | 0.00 | 61 | 1012.5 |
| 20260505212548 | 18 | 342 | 6.4 | 17.7 | 0.00 | 0.00 | 0.00 | 62 | 1012.5 |
| 20260505212048 | 18 | 272 | 11.3 | 19.3 | 0.00 | 0.00 | 0.00 | 62 | 1012.5 |
| 20260505211548 | 18 | 312 | 8.0 | 20.9 | 0.00 | 0.00 | 0.00 | 62 | 1012.5 |
| 20260505211050 | 18 | 339 | 8.0 | 20.9 | 0.00 | 0.00 | 0.00 | 61 | 1012.5 |
| 20260505210547 | 18 | 233 | 4.8 | 9.7 | 0.00 | 0.00 | 0.00 | 62 | 1012.5 |
| 20260505210049 | 17 | 265 | 3.2 | 17.7 | 0.00 | 0.00 | 0.00 | 63 | 1012.6 |
| 20260505205546 | 17 | 312 | 8.0 | 17.7 | 0.00 | 0.00 | 0.00 | 62 | 1012.6 |
| 20260505205047 | 17 | 279 | 6.4 | 17.7 | 0.00 | 0.00 | 0.00 | 62 | 1012.7 |
| 20260505204545 | 17 | 4 | 8.0 | 22.5 | 0.00 | 0.00 | 0.00 | 62 | 1012.7 |
| 20260505204045 | 17 | 29 | 4.8 | 22.5 | 0.00 | 0.00 | 0.00 | 63 | 1012.7 |
| 20260505203545 | 17 | 287 | 8.0 | 17.7 | 0.00 | 0.00 | 0.00 | 62 | 1012.7 |
| 20260505203048 | 17 | 274 | 8.0 | 20.9 | 0.00 | 0.00 | 0.00 | 63 | 1012.8 |
| 20260505202543 | 17 | 300 | 4.8 | 20.9 | 0.00 | 0.00 | 0.00 | 63 | 1012.7 |
| 20260505202047 | 17 | 322 | 11.3 | 22.5 | 0.00 | 0.00 | 0.00 | 63 | 1012.8 |
| 20260505201550 | 17 | 243 | 11.3 | 22.5 | 0.00 | 0.00 | 0.00 | 64 | 1012.7 |
| 20260505201042 | 17 | 259 | 6.4 | 16.1 | 0.00 | 0.00 | 0.00 | 62 | 1012.9 |
| 20260505200540 | 17 | 295 | 3.2 | 19.3 | 0.00 | 0.00 | 0.00 | 64 | 1012.9 |
| 20260505200041 | 17 | 303 | 6.4 | 19.3 | 0.00 | 0.00 | 0.00 | 65 | 1012.9 |
| 20260505195539 | 17 | 321 | 8.0 | 19.3 | 0.00 | 0.00 | 0.00 | 65 | 1012.9 |
| 20260505195041 | 17 | 255 | 8.0 | 17.7 | 0.00 | 0.00 | 0.00 | 66 | 1012.9 |
| 20260505194540 | 16 | 266 | 8.0 | 19.3 | 0.00 | 0.00 | 0.00 | 66 | 1013.0 |
| 20260505194038 | 16 | 337 | 6.4 | 16.1 | 0.00 | 0.00 | 0.00 | 67 | 1013.0 |
| 20260505193541 | 16 | 306 | 8.0 | 19.3 | 0.00 | 0.00 | 0.00 | 66 | 1013.0 |
| 20260505193046 | 16 | 341 | 9.7 | 19.3 | 0.00 | 0.00 | 0.00 | 65 | 1013.1 |
| 20260505192542 | 17 | 256 | 8.0 | 16.1 | 0.00 | 0.00 | 0.00 | 65 | 1013.0 |
| 20260505192037 | 16 | 310 | 8.0 | 16.1 | 0.00 | 0.00 | 0.00 | 66 | 1013.0 |
| 20260505191548 | 16 | 341 | 8.0 | 17.7 | 0.00 | 0.00 | 0.00 | 67 | 1013.0 |
| 20260505191035 | 16 | 245 | 9.7 | 19.3 | 0.00 | 0.00 | 0.00 | 66 | 1013.2 |
| 20260505190534 | 16 | 247 | 11.3 | 19.3 | 0.00 | 0.00 | 0.00 | 67 | 1013.0 |
| 20260505190037 | 16 | 279 | 6.4 | 19.3 | 0.00 | 0.00 | 0.00 | 67 | 1013.1 |
| 20260505185535 | 16 | 332 | 11.3 | 19.3 | 0.00 | 0.00 | 0.00 | 66 | 1013.0 |
| 20260505185033 | 16 | 335 | 8.0 | 17.7 | 0.00 | 0.00 | 0.00 | 67 | 1013.0 |
| 20260505184533 | 16 | 315 | 8.0 | 17.7 | 0.00 | 0.00 | 0.00 | 66 | 1012.9 |
| 20260505184034 | 16 | 328 | 8.0 | 17.7 | 0.00 | 0.00 | 0.00 | 66 | 1012.9 |
| 20260505183535 | 16 | 249 | 6.4 | 16.1 | 0.00 | 0.00 | 0.00 | 67 | 1012.9 |
| 20260505183047 | 16 | 330 | 3.2 | 17.7 | 0.00 | 0.00 | 0.00 | 69 | 1013.0 |
| 20260505182533 | 16 | 29 | 6.4 | 20.9 | 0.00 | 0.00 | 0.00 | 68 | 1013.0 |
| 20260505182031 | 16 | 52 | 4.8 | 20.9 | 0.00 | 0.00 | 0.00 | 70 | 1013.0 |
| 20260505181531 | 16 | 336 | 8.0 | 20.9 | 0.00 | 0.00 | 0.00 | 68 | 1013.0 |
| 20260505181032 | 16 | 318 | 4.8 | 17.7 | 0.00 | 0.00 | 0.00 | 71 | 1012.9 |
| 20260505180528 | 15 | 258 | 8.0 | 17.7 | 0.00 | 0.00 | 0.00 | 71 | 1012.8 |
| 20260505180035 | 15 | 354 | 6.4 | 17.7 | 0.00 | 0.00 | 0.00 | 71 | 1012.8 |
| 20260505175526 | 15 | 327 | 6.4 | 17.7 | 0.00 | 0.00 | 0.00 | 72 | 1012.8 |
| 20260505175025 | 15 | 295 | 4.8 | 16.1 | 0.00 | 0.00 | 0.00 | 73 | 1012.7 |
| 20260505174531 | 15 | 291 | 4.8 | 16.1 | 0.00 | 0.00 | 0.00 | 74 | 1012.8 |
| 20260505174023 | 15 | 314 | 4.8 | 14.5 | 0.00 | 0.00 | 0.00 | 74 | 1012.8 |
| 20260505173521 | 15 | 322 | 4.8 | 16.1 | 0.00 | 0.00 | 0.00 | 74 | 1012.6 |
| 20260505173033 | 15 | 335 | 3.2 | 16.1 | 0.00 | 0.00 | 0.00 | 75 | 1012.6 |
| 20260505172519 | 14 | 339 | 6.4 | 16.1 | 0.00 | 0.00 | 0.00 | 75 | 1012.5 |
| 20260505172025 | 14 | 349 | 6.4 | 19.3 | 0.00 | 0.00 | 0.00 | 76 | 1012.5 |
| 20260505171527 | 14 | 324 | 8.0 | 17.7 | 0.00 | 0.00 | 0.00 | 76 | 1012.5 |
| 20260505171017 | 14 | 278 | 3.2 | 16.1 | 0.00 | 0.00 | 0.00 | 77 | 1012.5 |
| 20260505170519 | 14 | 332 | 4.8 | 16.1 | 0.00 | 0.00 | 0.00 | 77 | 1012.6 |
| 20260505170017 | 14 | 289 | 6.4 | 12.9 | 0.00 | 0.00 | 0.00 | 77 | 1012.7 |
| 20260505165516 | 14 | 330 | 3.2 | 12.9 | 0.00 | 0.00 | 0.00 | 78 | 1012.6 |
| 20260505165013 | 14 | 285 | 4.8 | 14.5 | 0.00 | 0.00 | 0.00 | 78 | 1012.5 |
| 20260505164528 | 14 | 302 | 8.0 | 16.1 | 0.00 | 0.00 | 0.00 | 78 | 1012.5 |
| 20260505164012 | 14 | 297 | 8.0 | 16.1 | 0.00 | 0.00 | 0.00 | 79 | 1012.5 |
| 20260505163512 | 13 | 272 | 6.4 | 14.5 | 0.00 | 0.00 | 0.00 | 79 | 1012.5 |
| 20260505163016 | 13 | 337 | 6.4 | 14.5 | 0.00 | 0.00 | 0.00 | 79 | 1012.5 |
| 20260505162511 | 13 | 331 | 3.2 | 8.0 | 0.00 | 0.00 | 0.00 | 80 | 1012.5 |
| 20260505162011 | 13 | 262 | 3.2 | 12.9 | 0.00 | 0.00 | 0.00 | 81 | 1012.4 |
| 20260505161511 | 13 | 342 | 4.8 | 16.1 | 0.00 | 0.00 | 0.00 | 80 | 1012.5 |
| 20260505161011 | 13 | 295 | 6.4 | 16.1 | 0.00 | 0.00 | 0.00 | 81 | 1012.4 |
| 20260505160510 | 13 | 317 | 8.0 | 16.1 | 0.00 | 0.00 | 0.00 | 81 | 1012.3 |
| 20260505153003 | 12 | 293 | 4.8 | 9.7 | 0.00 | 0.00 | 0.00 | 84 | 1012.3 |
| 20260505152503 | 12 | 316 | 3.2 | 9.7 | 0.00 | 0.00 | 0.00 | 84 | 1012.3 |
| 20260505152004 | 12 | 4 | 1.6 | 6.4 | 0.00 | 0.00 | 0.00 | 84 | 1012.2 |
| 20260505151502 | 12 | 253 | 0.0 | 8.0 | 0.00 | 0.00 | 0.00 | 85 | 1012.2 |